CST,Max TemperatureF,Mean TemperatureF,Min TemperatureF,Max Dew PointF,MeanDew PointF,Min DewpointF,Max Humidity, Mean Humidity, Min Humidity, Max Sea Level PressureIn, Mean Sea Level PressureIn, Min Sea Level PressureIn, Max VisibilityMiles, Mean VisibilityMiles, Min VisibilityMiles, Max Wind SpeedMPH, Mean Wind SpeedMPH, Max Gust SpeedMPH,PrecipitationIn, CloudCover, Events, WindDirDegrees
2013-2-1,45,39,32,30,18,8,76,49,22,30.45,30.36,30.22,10,10,10,16,5,24,0.00,0,,321
2013-2-2,57,43,28,43,30,15,92,62,31,30.38,30.23,30.14,10,7,0,13,3,16,0.10,3,Fog-Rain,231
2013-2-3,60,47,33,39,32,27,96,64,31,30.20,30.16,30.09,10,5,0,18,6,29,0.00,1,Fog,267
2013-2-4,53,44,34,37,32,28,82,62,41,30.14,30.07,29.99,10,10,10,10,2,13,0.00,2,,152
2013-2-5,62,53,43,52,47,38,93,78,62,30.06,30.03,29.97,10,7,0,9,2,13,0.00,6,Fog,321
2013-2-6,70,59,47,52,45,34,100,63,26,30.20,30.12,30.06,10,5,0,7,2,10,0.00,4,Fog,48
2013-2-7,57,53,49,51,48,38,93,68,43,30.10,29.97,29.91,10,6,1,10,4,15,0.31,8,Rain,56
2013-2-8,55,46,37,52,47,32,96,81,66,30.25,30.06,29.95,10,5,1,15,4,23,0.03,6,Rain,15
2013-2-9,64,49,34,37,33,30,89,60,31,30.30,30.23,30.17,10,9,5,9,3,14,0.00,0,,79
2013-2-10,59,52,45,58,50,36,100,78,56,30.18,30.06,29.96,10,6,1,25,5,38,2.06,7,Rain-Thunderstorm,132
2013-2-11,58,54,50,57,56,51,100,97,93,30.17,30.11,30.01,10,4,0,10,2,15,0.97,8,Fog-Rain,251
2013-2-12,50,47,44,45,43,41,93,84,74,30.15,29.93,29.78,10,6,2,12,4,18,0.79,8,Rain-Thunderstorm,65
2013-2-13,50,45,39,48,42,34,100,83,66,30.05,29.88,29.75,10,8,2,14,7,24,0.00,7,,292
2013-2-14,57,46,34,41,36,33,100,72,43,30.13,30.09,30.04,10,6,0,8,1,13,0.00,1,Fog,302
2013-2-15,63,50,36,40,35,33,92,64,36,30.15,30.09,30.04,10,10,8,15,4,23,0.00,2,,315
2013-2-16,48,40,31,34,21,12,64,46,28,30.25,30.14,30.04,10,10,10,22,10,29,0.00,3,,322
2013-2-17,52,39,25,25,16,5,75,47,19,30.35,30.29,30.24,10,10,10,9,1,14,0.00,1,,224
2013-2-18,63,48,32,39,31,23,72,52,32,30.32,30.18,29.99,10,10,10,25,9,35,T,3,Rain,164
2013-2-19,59,49,39,48,40,21,93,60,26,30.25,30.08,29.98,10,7,2,20,7,28,0.42,5,Rain,311
2013-2-20,47,40,32,24,20,13,64,45,25,30.27,30.21,30.15,10,10,10,13,3,16,0.00,1,,359
2013-2-21,64,49,34,47,33,19,86,53,20,30.16,30.00,29.89,10,9,2,16,6,22,0.51,5,Rain-Thunderstorm,97
2013-2-22,56,53,49,53,49,46,100,93,86,30.06,29.98,29.92,10,4,1,14,4,17,1.58,8,Rain-Thunderstorm,67
2013-2-23,59,52,44,50,48,41,100,84,67,29.99,29.94,29.86,10,7,1,12,3,16,0.25,6,Rain,341
2013-2-24,67,52,36,41,38,34,100,66,32,30.07,29.99,29.91,10,5,0,7,2,12,0.00,1,Fog,47
2013-2-25,60,54,47,52,45,34,93,73,52,29.91,29.76,29.55,10,7,2,17,8,28,0.82,8,Rain,91
2013-2-26,52,49,45,50,41,32,93,75,56,29.87,29.63,29.49,10,9,3,17,8,25,0.13,8,Rain,181
2013-2-27,59,49,39,35,34,32,79,60,40,29.96,29.92,29.88,10,10,10,17,6,24,0.00,2,,270
2013-2-28,50,44,37,33,29,26,79,63,46,30.08,30.02,29.95,10,9,8,17,8,24,0.00,3,,315